Weather in Svetlyy

Russia / Sakha (Yakutia) Republic     63°02′59″N   113°25′37″E
temp.,
°C
wind,
m/s
gust,
m/s
humid.,
%
clouds,
%
prec.,
mm/h
press.,
hPa
HPBL,
m
17 september, fri
fri1700:00+3w118812 0.0 101110
03:00+2w11925 0.0 101210
06:00+1w11925 0.0 101312
09:00+3wnw28855 0.0 1014263
12:00+8wnw58645 0.0 10141157
15:00+9wnw575287 0.0 10141881
18:00+7wnw48635 0.1 10151102
21:00+3wnw238182 0.2 101653
18 september, sat
sat1800:00+1wnw228816 0.0 101717
03:000wnw219017 0.0 101817
06:00−1wnw11905 0.0 101918
09:00+2nw26755 0.0 1019359
12:00+5nw35566 0.0 10181013
15:00+7nw355250 0.0 10171332
18:00+6nnw1361100 0.0 1017117
21:00+3ese0069100 0.0 101810
19 september, sun
sun1900:00+3ssw0071100 0.0 101710
03:00+2ssw0073100 0.0 101710
06:00+2e1174100 0.0 101710
09:00+3e116969 0.0 101693
12:00+7ese22545 0.0 1015769
15:00+9ese115350 0.0 10141153
18:00+8e236349 0.0 1013190
21:00+4e267493 0.0 1014144
20 september, mon
mon2000:00+2e297597 0.0 1014199
03:000e287956 0.0 1014218
06:00+1e3107685 0.0 1013303
09:00+2ese41072100 0.0 1013384
12:00+3ese41069100 0.0 1012402
15:00+5se3865100 0.0 1011504
18:00+6ese4866100 0.0 1010492
21:00+4ese41271100 0.0 1009360
21 september, tue
tue2100:00+3e41271100 0.0 1008342
03:00+3e51472100 0.0 1006395
06:00+3e61676100 0.0 1004463
09:00+4ese51577100 0.0 1003543
12:00+7s3876100 0.0 1003569
15:00+7wsw4882100 0.2 1006802
18:00+6sw4871100 0.0 10091042
21:00+3sse2281100 0.0 101021